Flag for Tonga Weather past 2 weeks in Nukualofa, Tonga

Now
75 °F

Scattered clouds.


Feels Like: 77 °F
Forecast: 69 / 73 °F
Wind: 17 mph from Southeast

Location: Fua'Amotu

Current Time: Aug 29, 2014 at 12:31:37 PM

Latest Report: Aug 29, 2014 at 12:00 PM


Visibility: N/A

Pressure: 30.15 "Hg

Humidity: 61%

Dew point: 61 °F

Location of NukualofaLocation

Historic Weather in Nukualofa — Graph

°F

Nukualofa temperature yesterday

Maximum temperature yesterday: 75 °F (at 3:00 PM)
Minimum temperature yesterday: 63 °F (at 6:00 AM)
Average temperature yesterday: 68 °F

Past Weeks' High & Low Weather Summary

 TemperatureHumidityPressure
High79 °F (Aug 21, 1:00 PM)100% (Aug 14, 10:00 PM)30.18 "Hg (Aug 14, 10:00 PM)
Low59 °F (Aug 15, 10:00 PM)41% (Aug 26, 3:00 PM)29.95 "Hg (Aug 15, 4:00 PM)
Average69 °F68%30.08 "Hg
* Reported Aug 14 11:00 AM — Aug 29 11:00 AM, Nukualofa, Weather by CustomWeather, © 2014

Note: Actual official high and low records may vary slightly from our data, if they occured in-between our weather recording intervals... More about our weather records

Advertising

Nukualofa weather history for previous 24 hours

 ConditionsComfort  
Time TempWeatherWind HumidityBarometerVisibility
11:00 AM
Aug 29
73 °FPartly sunny.13 mph65%30.15 "HgN/A
10:00 AM70 °FPartly sunny.13 mph78%30.18 "HgN/A
9:00 AM70 °FScattered clouds.13 mph78%30.15 "HgN/A
8:00 AM68 °FScattered clouds.13 mph83%30.15 "HgN/A
7:00 AM68 °FBroken clouds.6 mph78%30.12 "HgN/A
6:00 AM68 °FPassing clouds.7 mph78%30.12 "HgN/A
5:00 AM70 °FPassing clouds.9 mph73%30.12 "HgN/A
4:00 AM68 °FPassing clouds.7 mph73%30.12 "HgN/A
3:00 AM68 °FPassing clouds.8 mph73%30.12 "HgN/A
2:00 AM68 °FPassing clouds.8 mph73%30.15 "HgN/A
1:00 AM68 °FPassing clouds.10 mph73%30.15 "HgN/A
12:00 AM68 °FPassing clouds.10 mph73%30.15 "HgN/A
11:00 PM
Aug 28
68 °FPassing clouds.7 mph73%30.15 "HgN/A
10:00 PM68 °FPartly cloudy.5 mph78%30.18 "HgN/A
9:00 PM66 °FSprinkles. Mostly cloudy.6 mph100%30.18 "Hg2 mi
8:00 PM64 °FSprinkles. Mostly cloudy.No wind94%30.18 "Hg2 mi
7:00 PM66 °FSprinkles. Partly cloudy.3 mph88%N/A2 mi
6:00 PM70 °FPassing clouds.9 mph73%30.12 "HgN/A
5:00 PM73 °FPartly sunny.12 mph61%30.12 "HgN/A
3:00 PM75 °FBroken clouds.12 mph57%30.09 "HgN/A
12:00 PM73 °FScattered clouds.13 mph65%30.15 "HgN/A
Weather by CustomWeather, © 2014

See weather overviewHow to use our weather pages